Home > Weather > Stange > Past weeks

Flag for Norway Past Weather in Stange, Norway — Yesterday and Last 2 Weeks

Now
79 °F

Pleasantly warm.


Feels Like: 78 °F
Forecast: 48 / 78 °F
Wind: 3 mph from Southwest

Location: Haugedalshogda

Current Time: May 31, 2016 at 6:15:48 PM

Latest Report: May 31, 2016 at 5:00 PM


Visibility: N/A

Pressure: 30.15 "Hg

Humidity: 23%

Dew Point: 38 °F

Location of StangeLocation

Past Weather in Stange — Graph

°F

Stange Temperature Yesterday

Maximum temperature yesterday: 69 °F (at 6:00 PM)
Minimum temperature yesterday: 51 °F (at 11:00 PM)
Average temperature yesterday: 58 °F

High & Low Weather Summary for the Past Weeks

 TemperatureHumidityPressure
High79 °F (May 31, 5:00 PM)100% (May 23, 4:00 AM)30.31 "Hg (May 23, 4:00 AM)
Low22 °F (May 17, 5:00 AM)20% (May 16, 6:00 PM)29.65 "Hg (May 17, 8:00 PM)
Average51 °F74%30.00 "Hg
* Reported May 16 5:00 PM — May 31 5:00 PM, Stange, Weather by CustomWeather, © 2016

Note: Actual official high and low records may vary slightly from our data, if they occured in-between our weather recording intervals... More about our weather records

Advertising

Stange Weather History for the Previous 24 Hours

Scroll right to see more
 ConditionsComfort  
Time TempWeatherWind HumidityBarometerVisibility
5:00 PM
Tue, May 31
79 °FPleasantly warm.3 mph23%30.15 "HgN/A
4:00 PM79 °FPleasantly warm.3 mph27%30.16 "HgN/A
3:00 PM77 °FPleasantly warm.3 mph27%30.17 "HgN/A
2:00 PM76 °FMild.3 mph33%30.19 "HgN/A
1:00 PM74 °FMild.2 mph36%30.21 "HgN/A
12:00 PM71 °FMild.2 mph43%30.22 "HgN/A
11:00 AM70 °FMild.1 mph49%30.22 "HgN/A
10:00 AM65 °FMild.2 mph59%30.24 "HgN/A
9:00 AM60 °FCool.1 mph72%30.26 "HgN/A
8:00 AM54 °FCool.1 mph91%30.29 "HgN/A
7:00 AM49 °FCool.1 mph99%30.30 "HgN/A
6:00 AM45 °FCool.No wind100%30.31 "HgN/A
5:00 AM42 °FQuite cool.No wind100%30.30 "HgN/A
4:00 AM42 °FQuite cool.1 mph99%30.29 "HgN/A
3:00 AM41 °FQuite cool.1 mph98%30.29 "HgN/A
2:00 AM42 °FQuite cool.No wind98%30.29 "HgN/A
1:00 AM44 °FQuite cool.No wind96%30.28 "HgN/A
12:00 AM48 °FCool.No wind97%30.26 "HgN/A
11:00 PM
Mon, May 30
51 °FCool.1 mph94%30.24 "HgN/A
10:00 PM59 °FCool.1 mph78%30.21 "HgN/A
9:00 PM64 °FMild.3 mph66%30.19 "HgN/A
8:00 PM66 °FMild.5 mph61%30.18 "HgN/A
6:00 PM69 °FMild.2 mph53%30.17 "HgN/A
Weather by CustomWeather, © 2016

See weather overviewHow to use our weather pages